owner,sensor,date,latitude,longitude,vertical_datum,sea_water_practical_salinity,qcFlag 
ENP,ioos.station.NOAA.NDBC:LMRF1:1,2016-03-01T00:00:00Z,25.5560,-81.1690,1.5,12.3,1111122 
ENP,ioos.station.NOAA.NDBC:LMRF1:1,2016-03-01T01:00:00Z,25.5560,-81.1690,1.5,13.61,1111122 
ENP,ioos.station.NOAA.NDBC:LMRF1:1,2016-03-01T02:00:00Z,25.5560,-81.1690,1.5,13.34,1111122 
ENP,ioos.station.NOAA.NDBC:LMRF1:1,2016-03-01T05:00:00Z,25.5560,-81.1690,1.5,6.1,1111122 
ENP,ioos.station.NOAA.NDBC:LMRF1:1,2016-03-01T10:00:00Z,25.5560,-81.1690,1.5,3.85,1111122 
ENP,ioos.station.NOAA.NDBC:LMRF1:1,2016-03-01T11:00:00Z,25.5560,-81.1690,1.5,3.89,1111122 
ENP,ioos.station.NOAA.NDBC:LMRF1:1,2016-03-01T12:00:00Z,25.5560,-81.1690,1.5,4.4,1111122 
ENP,ioos.station.NOAA.NDBC:LMRF1:1,2016-03-01T13:00:00Z,25.5560,-81.1690,1.5,5.18,1111122 
ENP,ioos.station.NOAA.NDBC:LMRF1:1,2016-03-01T14:00:00Z,25.5560,-81.1690,1.5,5.93,1111122 
ENP,ioos.station.NOAA.NDBC:LMRF1:1,2016-03-01T16:00:00Z,25.5560,-81.1690,1.5,5.6,1111122 
ENP,ioos.station.NOAA.NDBC:LMRF1:1,2016-03-01T17:00:00Z,25.5560,-81.1690,1.5,4.78,1111122 
ENP,ioos.station.NOAA.NDBC:LMRF1:1,2016-03-01T18:00:00Z,25.5560,-81.1690,1.5,4.61,1111122 
ENP,ioos.station.NOAA.NDBC:LMRF1:1,2016-03-01T20:00:00Z,25.5560,-81.1690,1.5,4.02,1111122 
ENP,ioos.station.NOAA.NDBC:LMRF1:1,2016-03-01T21:00:00Z,25.5560,-81.1690,1.5,4.05,1111122 
ENP,ioos.station.NOAA.NDBC:LMRF1:1,2016-03-01T22:00:00Z,25.5560,-81.1690,1.5,6.24,1111122 
ENP,ioos.station.NOAA.NDBC:LMRF1:1,2016-03-01T23:00:00Z,25.5560,-81.1690,1.5,10.23,1111122 
ENP,ioos.station.NOAA.NDBC:LMRF1:1,2016-03-02T00:00:00Z,25.5560,-81.1690,1.5,13.8,1111122 
ENP,ioos.station.NOAA.NDBC:LMRF1:1,2016-03-02T01:00:00Z,25.5560,-81.1690,1.5,16.6,1111122 
ENP,ioos.station.NOAA.NDBC:LMRF1:1,2016-03-02T02:00:00Z,25.5560,-81.1690,1.5,17.68,1111122 
ENP,ioos.station.NOAA.NDBC:LMRF1:1,2016-03-02T04:00:00Z,25.5560,-81.1690,1.5,11.26,1111122 
ENP,ioos.station.NOAA.NDBC:LMRF1:1,2016-03-02T05:00:00Z,25.5560,-81.1690,1.5,9.46,1111122 
ENP,ioos.station.NOAA.NDBC:LMRF1:1,2016-03-02T08:00:00Z,25.5560,-81.1690,1.5,6.2,1111122 
ENP,ioos.station.NOAA.NDBC:LMRF1:1,2016-03-02T09:00:00Z,25.5560,-81.1690,1.5,5.61,1111122 
ENP,ioos.station.NOAA.NDBC:LMRF1:1,2016-03-02T10:00:00Z,25.5560,-81.1690,1.5,5.2,1111122 
ENP,ioos.station.NOAA.NDBC:LMRF1:1,2016-03-02T12:00:00Z,25.5560,-81.1690,1.5,5.06,1111122 
ENP,ioos.station.NOAA.NDBC:LMRF1:1,2016-03-02T13:00:00Z,25.5560,-81.1690,1.5,5.41,1111122 
ENP,ioos.station.NOAA.NDBC:LMRF1:1,2016-03-02T14:00:00Z,25.5560,-81.1690,1.5,6.26,1111122 
ENP,ioos.station.NOAA.NDBC:LMRF1:1,2016-03-02T15:00:00Z,25.5560,-81.1690,1.5,7.53,1111122 
ENP,ioos.station.NOAA.NDBC:LMRF1:1,2016-03-02T16:00:00Z,25.5560,-81.1690,1.5,8.33,1111122 
ENP,ioos.station.NOAA.NDBC:LMRF1:1,2016-03-02T17:00:00Z,25.5560,-81.1690,1.5,7.89,1111122 
ENP,ioos.station.NOAA.NDBC:LMRF1:1,2016-03-02T18:00:00Z,25.5560,-81.1690,1.5,6.41,1111122 
ENP,ioos.station.NOAA.NDBC:LMRF1:1,2016-03-02T19:00:00Z,25.5560,-81.1690,1.5,5.74,1111122 
ENP,ioos.station.NOAA.NDBC:LMRF1:1,2016-03-02T20:00:00Z,25.5560,-81.1690,1.5,5.07,1111122 
ENP,ioos.station.NOAA.NDBC:LMRF1:1,2016-03-02T21:00:00Z,25.5560,-81.1690,1.5,4.93,1111122 
ENP,ioos.station.NOAA.NDBC:LMRF1:1,2016-03-02T22:00:00Z,25.5560,-81.1690,1.5,4.93,1111122 
ENP,ioos.station.NOAA.NDBC:LMRF1:1,2016-03-02T23:00:00Z,25.5560,-81.1690,1.5,5.09,1111122 
ENP,ioos.station.NOAA.NDBC:LMRF1:1,2016-03-03T00:00:00Z,25.5560,-81.1690,1.5,6.66,1111122 
ENP,ioos.station.NOAA.NDBC:LMRF1:1,2016-03-03T01:00:00Z,25.5560,-81.1690,1.5,10.16,1111122 
ENP,ioos.station.NOAA.NDBC:LMRF1:1,2016-03-03T02:00:00Z,25.5560,-81.1690,1.5,13.21,1111122 
ENP,ioos.station.NOAA.NDBC:LMRF1:1,2016-03-03T05:00:00Z,25.5560,-81.1690,1.5,11.19,1111122 
ENP,ioos.station.NOAA.NDBC:LMRF1:1,2016-03-03T06:00:00Z,25.5560,-81.1690,1.5,7.75,1111122 
ENP,ioos.station.NOAA.NDBC:LMRF1:1,2016-03-03T08:00:00Z,25.5560,-81.1690,1.5,6.71,1111122 
ENP,ioos.station.NOAA.NDBC:LMRF1:1,2016-03-03T09:00:00Z,25.5560,-81.1690,1.5,6.02,1111122 
ENP,ioos.station.NOAA.NDBC:LMRF1:1,2016-03-03T10:00:00Z,25.5560,-81.1690,1.5,5.5,1111122 
ENP,ioos.station.NOAA.NDBC:LMRF1:1,2016-03-03T11:00:00Z,25.5560,-81.1690,1.5,4.77,1111122 
ENP,ioos.station.NOAA.NDBC:LMRF1:1,2016-03-03T12:00:00Z,25.5560,-81.1690,1.5,4.33,1111122 
ENP,ioos.station.NOAA.NDBC:LMRF1:1,2016-03-03T13:00:00Z,25.5560,-81.1690,1.5,4.24,1111122 
ENP,ioos.station.NOAA.NDBC:LMRF1:1,2016-03-03T14:00:00Z,25.5560,-81.1690,1.5,4.34,1111122 
ENP,ioos.station.NOAA.NDBC:LMRF1:1,2016-03-03T15:00:00Z,25.5560,-81.1690,1.5,4.87,1111122 
ENP,ioos.station.NOAA.NDBC:LMRF1:1,2016-03-03T16:00:00Z,25.5560,-81.1690,1.5,5.74,1111122 
ENP,ioos.station.NOAA.NDBC:LMRF1:1,2016-03-03T17:00:00Z,25.5560,-81.1690,1.5,7.26,1111122 
ENP,ioos.station.NOAA.NDBC:LMRF1:1,2016-03-03T18:00:00Z,25.5560,-81.1690,1.5,8.58,1111122 
ENP,ioos.station.NOAA.NDBC:LMRF1:1,2016-03-03T19:00:00Z,25.5560,-81.1690,1.5,6.78,1111122 
ENP,ioos.station.NOAA.NDBC:LMRF1:1,2016-03-03T20:00:00Z,25.5560,-81.1690,1.5,6.08,1111122 
ENP,ioos.station.NOAA.NDBC:LMRF1:1,2016-03-03T21:00:00Z,25.5560,-81.1690,1.5,5.54,1111122 
ENP,ioos.station.NOAA.NDBC:LMRF1:1,2016-03-03T22:00:00Z,25.5560,-81.1690,1.5,4.94,1111122 
ENP,ioos.station.NOAA.NDBC:LMRF1:1,2016-03-03T23:00:00Z,25.5560,-81.1690,1.5,4.62,1111122 
ENP,ioos.station.NOAA.NDBC:LMRF1:1,2016-03-04T00:00:00Z,25.5560,-81.1690,1.5,4.65,1111122 
ENP,ioos.station.NOAA.NDBC:LMRF1:1,2016-03-04T01:00:00Z,25.5560,-81.1690,1.5,7.37,1111122 
ENP,ioos.station.NOAA.NDBC:LMRF1:1,2016-03-04T02:00:00Z,25.5560,-81.1690,1.5,10.16,1111122 
ENP,ioos.station.NOAA.NDBC:LMRF1:1,2016-03-04T05:00:00Z,25.5560,-81.1690,1.5,16.4,1111122 
ENP,ioos.station.NOAA.NDBC:LMRF1:1,2016-03-04T08:00:00Z,25.5560,-81.1690,1.5,8.07,1111122 
ENP,ioos.station.NOAA.NDBC:LMRF1:1,2016-03-04T09:00:00Z,25.5560,-81.1690,1.5,7.23,1111122 
ENP,ioos.station.NOAA.NDBC:LMRF1:1,2016-03-04T10:00:00Z,25.5560,-81.1690,1.5,6.43,1111122 
ENP,ioos.station.NOAA.NDBC:LMRF1:1,2016-03-04T11:00:00Z,25.5560,-81.1690,1.5,5.68,1111122 
ENP,ioos.station.NOAA.NDBC:LMRF1:1,2016-03-04T12:00:00Z,25.5560,-81.1690,1.5,5.26,1111122 
ENP,ioos.station.NOAA.NDBC:LMRF1:1,2016-03-04T13:00:00Z,25.5560,-81.1690,1.5,4.98,1111122 
ENP,ioos.station.NOAA.NDBC:LMRF1:1,2016-03-04T14:00:00Z,25.5560,-81.1690,1.5,4.91,1111122 
ENP,ioos.station.NOAA.NDBC:LMRF1:1,2016-03-04T15:00:00Z,25.5560,-81.1690,1.5,5.18,1111122 
ENP,ioos.station.NOAA.NDBC:LMRF1:1,2016-03-04T16:00:00Z,25.5560,-81.1690,1.5,6.18,1111122 
ENP,ioos.station.NOAA.NDBC:LMRF1:1,2016-03-04T17:00:00Z,25.5560,-81.1690,1.5,9.15,1111122 
ENP,ioos.station.NOAA.NDBC:LMRF1:1,2016-03-04T18:00:00Z,25.5560,-81.1690,1.5,11.78,1111122 
ENP,ioos.station.NOAA.NDBC:LMRF1:1,2016-03-04T19:00:00Z,25.5560,-81.1690,1.5,12.82,1111122 
ENP,ioos.station.NOAA.NDBC:LMRF1:1,2016-03-04T20:00:00Z,25.5560,-81.1690,1.5,10.42,1111122 
ENP,ioos.station.NOAA.NDBC:LMRF1:1,2016-03-04T21:00:00Z,25.5560,-81.1690,1.5,8.83,1111122 
ENP,ioos.station.NOAA.NDBC:LMRF1:1,2016-03-04T22:00:00Z,25.5560,-81.1690,1.5,7.9,1111122 
ENP,ioos.station.NOAA.NDBC:LMRF1:1,2016-03-04T23:00:00Z,25.5560,-81.1690,1.5,6.74,1111122 
ENP,ioos.station.NOAA.NDBC:LMRF1:1,2016-03-05T00:00:00Z,25.5560,-81.1690,1.5,6.45,1111122 
ENP,ioos.station.NOAA.NDBC:LMRF1:1,2016-03-05T01:00:00Z,25.5560,-81.1690,1.5,6.48,1111122 
ENP,ioos.station.NOAA.NDBC:LMRF1:1,2016-03-05T02:00:00Z,25.5560,-81.1690,1.5,7.12,1111122 
ENP,ioos.station.NOAA.NDBC:LMRF1:1,2016-03-05T05:00:00Z,25.5560,-81.1690,1.5,16.53,1111122 
ENP,ioos.station.NOAA.NDBC:LMRF1:1,2016-03-05T08:00:00Z,25.5560,-81.1690,1.5,9.84,1111122 
ENP,ioos.station.NOAA.NDBC:LMRF1:1,2016-03-05T09:00:00Z,25.5560,-81.1690,1.5,9.08,1111122 
ENP,ioos.station.NOAA.NDBC:LMRF1:1,2016-03-05T10:00:00Z,25.5560,-81.1690,1.5,8.83,1111122 
ENP,ioos.station.NOAA.NDBC:LMRF1:1,2016-03-05T11:00:00Z,25.5560,-81.1690,1.5,7.65,1111122 
ENP,ioos.station.NOAA.NDBC:LMRF1:1,2016-03-05T12:00:00Z,25.5560,-81.1690,1.5,6.84,1111122 
ENP,ioos.station.NOAA.NDBC:LMRF1:1,2016-03-05T13:00:00Z,25.5560,-81.1690,1.5,6.22,1111122 
ENP,ioos.station.NOAA.NDBC:LMRF1:1,2016-03-05T14:00:00Z,25.5560,-81.1690,1.5,5.71,1111122 
ENP,ioos.station.NOAA.NDBC:LMRF1:1,2016-03-05T15:00:00Z,25.5560,-81.1690,1.5,5.47,1111122 
ENP,ioos.station.NOAA.NDBC:LMRF1:1,2016-03-05T16:00:00Z,25.5560,-81.1690,1.5,5.61,1111122 
ENP,ioos.station.NOAA.NDBC:LMRF1:1,2016-03-05T17:00:00Z,25.5560,-81.1690,1.5,6.43,1111122 
ENP,ioos.station.NOAA.NDBC:LMRF1:1,2016-03-05T18:00:00Z,25.5560,-81.1690,1.5,9.84,1111122 
ENP,ioos.station.NOAA.NDBC:LMRF1:1,2016-03-05T19:00:00Z,25.5560,-81.1690,1.5,12.95,1111122 
ENP,ioos.station.NOAA.NDBC:LMRF1:1,2016-03-05T20:00:00Z,25.5560,-81.1690,1.5,13.87,1111122 
ENP,ioos.station.NOAA.NDBC:LMRF1:1,2016-03-05T21:00:00Z,25.5560,-81.1690,1.5,11.39,1111122 
ENP,ioos.station.NOAA.NDBC:LMRF1:1,2016-03-05T22:00:00Z,25.5560,-81.1690,1.5,8.96,1111122 
ENP,ioos.station.NOAA.NDBC:LMRF1:1,2016-03-05T23:00:00Z,25.5560,-81.1690,1.5,7.24,1111122 
ENP,ioos.station.NOAA.NDBC:LMRF1:1,2016-03-06T00:00:00Z,25.5560,-81.1690,1.5,6.96,1111122 
ENP,ioos.station.NOAA.NDBC:LMRF1:1,2016-03-06T01:00:00Z,25.5560,-81.1690,1.5,6.74,1111122 
ENP,ioos.station.NOAA.NDBC:LMRF1:1,2016-03-06T02:00:00Z,25.5560,-81.1690,1.5,6.72,1111122 
ENP,ioos.station.NOAA.NDBC:LMRF1:1,2016-03-06T05:00:00Z,25.5560,-81.1690,1.5,15.8,1111122 
ENP,ioos.station.NOAA.NDBC:LMRF1:1,2016-03-06T08:00:00Z,25.5560,-81.1690,1.5,16.53,1111122 
ENP,ioos.station.NOAA.NDBC:LMRF1:1,2016-03-06T09:00:00Z,25.5560,-81.1690,1.5,12.17,1111122 
ENP,ioos.station.NOAA.NDBC:LMRF1:1,2016-03-06T10:00:00Z,25.5560,-81.1690,1.5,11.19,1111122 
ENP,ioos.station.NOAA.NDBC:LMRF1:1,2016-03-06T12:00:00Z,25.5560,-81.1690,1.5,9.08,1111122 
ENP,ioos.station.NOAA.NDBC:LMRF1:1,2016-03-06T13:00:00Z,25.5560,-81.1690,1.5,7.91,1111122 
ENP,ioos.station.NOAA.NDBC:LMRF1:1,2016-03-06T14:00:00Z,25.5560,-81.1690,1.5,7.16,1111122 
ENP,ioos.station.NOAA.NDBC:LMRF1:1,2016-03-06T15:00:00Z,25.5560,-81.1690,1.5,6.68,1111122 
ENP,ioos.station.NOAA.NDBC:LMRF1:1,2016-03-06T16:00:00Z,25.5560,-81.1690,1.5,6.37,1111122 
ENP,ioos.station.NOAA.NDBC:LMRF1:1,2016-03-06T17:00:00Z,25.5560,-81.1690,1.5,6.41,1111122 
ENP,ioos.station.NOAA.NDBC:LMRF1:1,2016-03-06T18:00:00Z,25.5560,-81.1690,1.5,6.95,1111122 
ENP,ioos.station.NOAA.NDBC:LMRF1:1,2016-03-06T19:00:00Z,25.5560,-81.1690,1.5,8.64,1111122 
ENP,ioos.station.NOAA.NDBC:LMRF1:1,2016-03-06T20:00:00Z,25.5560,-81.1690,1.5,10.48,1111122 
ENP,ioos.station.NOAA.NDBC:LMRF1:1,2016-03-06T21:00:00Z,25.5560,-81.1690,1.5,9.34,1111122 
ENP,ioos.station.NOAA.NDBC:LMRF1:1,2016-03-06T22:00:00Z,25.5560,-81.1690,1.5,8.24,1111122 
ENP,ioos.station.NOAA.NDBC:LMRF1:1,2016-03-06T23:00:00Z,25.5560,-81.1690,1.5,7.54,1111122 
ENP,ioos.station.NOAA.NDBC:LMRF1:1,2016-03-07T00:00:00Z,25.5560,-81.1690,1.5,6.73,1111122 
ENP,ioos.station.NOAA.NDBC:LMRF1:1,2016-03-07T01:00:00Z,25.5560,-81.1690,1.5,6.16,1111122 
ENP,ioos.station.NOAA.NDBC:LMRF1:1,2016-03-07T02:00:00Z,25.5560,-81.1690,1.5,5.78,1111122 
ENP,ioos.station.NOAA.NDBC:LMRF1:1,2016-03-07T03:00:00Z,25.5560,-81.1690,1.5,5.65,1111122 
ENP,ioos.station.NOAA.NDBC:LMRF1:1,2016-03-07T05:00:00Z,25.5560,-81.1690,1.5,6.8,1111122 
ENP,ioos.station.NOAA.NDBC:LMRF1:1,2016-03-07T06:00:00Z,25.5560,-81.1690,1.5,12.56,1111122 
ENP,ioos.station.NOAA.NDBC:LMRF1:1,2016-03-07T08:00:00Z,25.5560,-81.1690,1.5,13.21,1111122 
ENP,ioos.station.NOAA.NDBC:LMRF1:1,2016-03-07T09:00:00Z,25.5560,-81.1690,1.5,10.94,1111122 
ENP,ioos.station.NOAA.NDBC:LMRF1:1,2016-03-07T10:00:00Z,25.5560,-81.1690,1.5,7.91,1111122 
ENP,ioos.station.NOAA.NDBC:LMRF1:1,2016-03-07T11:00:00Z,25.5560,-81.1690,1.5,7.65,1111122 
ENP,ioos.station.NOAA.NDBC:LMRF1:1,2016-03-07T12:00:00Z,25.5560,-81.1690,1.5,7.07,1111122 
ENP,ioos.station.NOAA.NDBC:LMRF1:1,2016-03-07T14:00:00Z,25.5560,-81.1690,1.5,5.79,1111122 
ENP,ioos.station.NOAA.NDBC:LMRF1:1,2016-03-07T15:00:00Z,25.5560,-81.1690,1.5,5.2,1111122 
ENP,ioos.station.NOAA.NDBC:LMRF1:1,2016-03-07T16:00:00Z,25.5560,-81.1690,1.5,4.9,1111122 
ENP,ioos.station.NOAA.NDBC:LMRF1:1,2016-03-07T17:00:00Z,25.5560,-81.1690,1.5,4.91,1111122 
ENP,ioos.station.NOAA.NDBC:LMRF1:1,2016-03-07T18:00:00Z,25.5560,-81.1690,1.5,5.27,1111122 
ENP,ioos.station.NOAA.NDBC:LMRF1:1,2016-03-07T19:00:00Z,25.5560,-81.1690,1.5,7.67,1111122 
ENP,ioos.station.NOAA.NDBC:LMRF1:1,2016-03-07T20:00:00Z,25.5560,-81.1690,1.5,11.65,1111122 
ENP,ioos.station.NOAA.NDBC:LMRF1:1,2016-03-07T21:00:00Z,25.5560,-81.1690,1.5,11.71,1111122 
ENP,ioos.station.NOAA.NDBC:LMRF1:1,2016-03-08T10:00:00Z,25.5560,-81.1690,1.5,14.8,1111122 
ENP,ioos.station.NOAA.NDBC:LMRF1:1,2016-03-08T11:00:00Z,25.5560,-81.1690,1.5,11.26,1111122 
ENP,ioos.station.NOAA.NDBC:LMRF1:1,2016-03-08T12:00:00Z,25.5560,-81.1690,1.5,10.1,1111122 
ENP,ioos.station.NOAA.NDBC:LMRF1:1,2016-03-08T13:00:00Z,25.5560,-81.1690,1.5,9.21,1111122 
ENP,ioos.station.NOAA.NDBC:LMRF1:1,2016-03-08T14:00:00Z,25.5560,-81.1690,1.5,7.98,1111122 
ENP,ioos.station.NOAA.NDBC:LMRF1:1,2016-03-08T15:00:00Z,25.5560,-81.1690,1.5,7.11,1111122 
ENP,ioos.station.NOAA.NDBC:LMRF1:1,2016-03-08T16:00:00Z,25.5560,-81.1690,1.5,6.62,1111122 
ENP,ioos.station.NOAA.NDBC:LMRF1:1,2016-03-08T17:00:00Z,25.5560,-81.1690,1.5,6.38,1111122 
ENP,ioos.station.NOAA.NDBC:LMRF1:1,2016-03-08T18:00:00Z,25.5560,-81.1690,1.5,6.57,1111122 
ENP,ioos.station.NOAA.NDBC:LMRF1:1,2016-03-08T19:00:00Z,25.5560,-81.1690,1.5,8.32,1111122 
ENP,ioos.station.NOAA.NDBC:LMRF1:1,2016-03-08T20:00:00Z,25.5560,-81.1690,1.5,13.67,1111122 
ENP,ioos.station.NOAA.NDBC:LMRF1:1,2016-03-08T21:00:00Z,25.5560,-81.1690,1.5,15.8,1111122 
ENP,ioos.station.NOAA.NDBC:LMRF1:1,2016-03-08T22:00:00Z,25.5560,-81.1690,1.5,14.93,1111122 
ENP,ioos.station.NOAA.NDBC:LMRF1:1,2016-03-08T23:00:00Z,25.5560,-81.1690,1.5,14.0,1111122 
ENP,ioos.station.NOAA.NDBC:LMRF1:1,2016-03-09T00:00:00Z,25.5560,-81.1690,1.5,11.13,1111122 
ENP,ioos.station.NOAA.NDBC:LMRF1:1,2016-03-09T01:00:00Z,25.5560,-81.1690,1.5,9.4,1111122 
ENP,ioos.station.NOAA.NDBC:LMRF1:1,2016-03-09T02:00:00Z,25.5560,-81.1690,1.5,8.45,1111122 
ENP,ioos.station.NOAA.NDBC:LMRF1:1,2016-03-09T07:00:00Z,25.5560,-81.1690,1.5,13.02,1111122 
ENP,ioos.station.NOAA.NDBC:LMRF1:1,2016-03-09T08:00:00Z,25.5560,-81.1690,1.5,17.95,1111122 
ENP,ioos.station.NOAA.NDBC:LMRF1:1,2016-03-09T09:00:00Z,25.5560,-81.1690,1.5,19.99,1111122 
ENP,ioos.station.NOAA.NDBC:LMRF1:1,2016-03-09T10:00:00Z,25.5560,-81.1690,1.5,20.2,1111122 
ENP,ioos.station.NOAA.NDBC:LMRF1:1,2016-03-09T11:00:00Z,25.5560,-81.1690,1.5,18.42,1111122 
ENP,ioos.station.NOAA.NDBC:LMRF1:1,2016-03-09T12:00:00Z,25.5560,-81.1690,1.5,15.6,1111122 
ENP,ioos.station.NOAA.NDBC:LMRF1:1,2016-03-09T13:00:00Z,25.5560,-81.1690,1.5,14.0,1111122 
ENP,ioos.station.NOAA.NDBC:LMRF1:1,2016-03-09T14:00:00Z,25.5560,-81.1690,1.5,12.95,1111122 
ENP,ioos.station.NOAA.NDBC:LMRF1:1,2016-03-09T15:00:00Z,25.5560,-81.1690,1.5,11.19,1111122 
ENP,ioos.station.NOAA.NDBC:LMRF1:1,2016-03-09T16:00:00Z,25.5560,-81.1690,1.5,10.1,1111122 
ENP,ioos.station.NOAA.NDBC:LMRF1:1,2016-03-09T17:00:00Z,25.5560,-81.1690,1.5,9.72,1111122 
ENP,ioos.station.NOAA.NDBC:LMRF1:1,2016-03-09T18:00:00Z,25.5560,-81.1690,1.5,9.97,1111122 
ENP,ioos.station.NOAA.NDBC:LMRF1:1,2016-03-09T19:00:00Z,25.5560,-81.1690,1.5,11.97,1111122 
ENP,ioos.station.NOAA.NDBC:LMRF1:1,2016-03-09T20:00:00Z,25.5560,-81.1690,1.5,17.54,1111122 
ENP,ioos.station.NOAA.NDBC:LMRF1:1,2016-03-09T21:00:00Z,25.5560,-81.1690,1.5,20.06,1111122 
ENP,ioos.station.NOAA.NDBC:LMRF1:1,2016-03-09T22:00:00Z,25.5560,-81.1690,1.5,21.16,1111122 
ENP,ioos.station.NOAA.NDBC:LMRF1:1,2016-03-09T23:00:00Z,25.5560,-81.1690,1.5,20.34,1111122 
ENP,ioos.station.NOAA.NDBC:LMRF1:1,2016-03-10T00:00:00Z,25.5560,-81.1690,1.5,18.97,1111122 
ENP,ioos.station.NOAA.NDBC:LMRF1:1,2016-03-10T01:00:00Z,25.5560,-81.1690,1.5,15.33,1111122 
ENP,ioos.station.NOAA.NDBC:LMRF1:1,2016-03-10T02:00:00Z,25.5560,-81.1690,1.5,14.2,1111122 
ENP,ioos.station.NOAA.NDBC:LMRF1:1,2016-03-10T05:00:00Z,25.5560,-81.1690,1.5,10.36,1111122 
ENP,ioos.station.NOAA.NDBC:LMRF1:1,2016-03-10T08:00:00Z,25.5560,-81.1690,1.5,17.0,1111122 
ENP,ioos.station.NOAA.NDBC:LMRF1:1,2016-03-10T09:00:00Z,25.5560,-81.1690,1.5,20.27,1111122 
ENP,ioos.station.NOAA.NDBC:LMRF1:1,2016-03-10T10:00:00Z,25.5560,-81.1690,1.5,21.65,1111122 
ENP,ioos.station.NOAA.NDBC:LMRF1:1,2016-03-10T12:00:00Z,25.5560,-81.1690,1.5,18.56,1111122 
ENP,ioos.station.NOAA.NDBC:LMRF1:1,2016-03-10T13:00:00Z,25.5560,-81.1690,1.5,16.87,1111122 
ENP,ioos.station.NOAA.NDBC:LMRF1:1,2016-03-10T14:00:00Z,25.5560,-81.1690,1.5,16.0,1111122 
ENP,ioos.station.NOAA.NDBC:LMRF1:1,2016-03-10T15:00:00Z,25.5560,-81.1690,1.5,14.53,1111122 
ENP,ioos.station.NOAA.NDBC:LMRF1:1,2016-03-10T16:00:00Z,25.5560,-81.1690,1.5,12.62,1111122 
ENP,ioos.station.NOAA.NDBC:LMRF1:1,2016-03-10T17:00:00Z,25.5560,-81.1690,1.5,11.71,1111122 
ENP,ioos.station.NOAA.NDBC:LMRF1:1,2016-03-10T18:00:00Z,25.5560,-81.1690,1.5,11.71,1111122 
ENP,ioos.station.NOAA.NDBC:LMRF1:1,2016-03-10T19:00:00Z,25.5560,-81.1690,1.5,12.36,1111122 
ENP,ioos.station.NOAA.NDBC:LMRF1:1,2016-03-10T20:00:00Z,25.5560,-81.1690,1.5,15.6,1111122 
ENP,ioos.station.NOAA.NDBC:LMRF1:1,2016-03-10T21:00:00Z,25.5560,-81.1690,1.5,20.2,1111122 
ENP,ioos.station.NOAA.NDBC:LMRF1:1,2016-03-10T22:00:00Z,25.5560,-81.1690,1.5,21.72,1111122 
ENP,ioos.station.NOAA.NDBC:LMRF1:1,2016-03-10T23:00:00Z,25.5560,-81.1690,1.5,21.44,1111122 
ENP,ioos.station.NOAA.NDBC:LMRF1:1,2016-03-11T00:00:00Z,25.5560,-81.1690,1.5,21.1,1111122 
ENP,ioos.station.NOAA.NDBC:LMRF1:1,2016-03-11T01:00:00Z,25.5560,-81.1690,1.5,18.63,1111122 
ENP,ioos.station.NOAA.NDBC:LMRF1:1,2016-03-11T02:00:00Z,25.5560,-81.1690,1.5,16.53,1111122 
ENP,ioos.station.NOAA.NDBC:LMRF1:1,2016-03-11T05:00:00Z,25.5560,-81.1690,1.5,12.17,1111122 
ENP,ioos.station.NOAA.NDBC:LMRF1:1,2016-03-11T08:00:00Z,25.5560,-81.1690,1.5,13.08,1111122 
ENP,ioos.station.NOAA.NDBC:LMRF1:1,2016-03-11T09:00:00Z,25.5560,-81.1690,1.5,17.14,1111122 
ENP,ioos.station.NOAA.NDBC:LMRF1:1,2016-03-11T10:00:00Z,25.5560,-81.1690,1.5,20.34,1111122 
ENP,ioos.station.NOAA.NDBC:LMRF1:1,2016-03-11T11:00:00Z,25.5560,-81.1690,1.5,21.58,1111122 
ENP,ioos.station.NOAA.NDBC:LMRF1:1,2016-03-11T12:00:00Z,25.5560,-81.1690,1.5,20.54,1111122 
ENP,ioos.station.NOAA.NDBC:LMRF1:1,2016-03-11T13:00:00Z,25.5560,-81.1690,1.5,18.02,1111122 
ENP,ioos.station.NOAA.NDBC:LMRF1:1,2016-03-11T14:00:00Z,25.5560,-81.1690,1.5,16.87,1111122 
ENP,ioos.station.NOAA.NDBC:LMRF1:1,2016-03-11T15:00:00Z,25.5560,-81.1690,1.5,16.06,1111122 
ENP,ioos.station.NOAA.NDBC:LMRF1:1,2016-03-11T16:00:00Z,25.5560,-81.1690,1.5,14.27,1111122 
ENP,ioos.station.NOAA.NDBC:LMRF1:1,2016-03-11T17:00:00Z,25.5560,-81.1690,1.5,12.88,1111122 
ENP,ioos.station.NOAA.NDBC:LMRF1:1,2016-03-11T18:00:00Z,25.5560,-81.1690,1.5,12.23,1111122 
ENP,ioos.station.NOAA.NDBC:LMRF1:1,2016-03-11T19:00:00Z,25.5560,-81.1690,1.5,12.3,1111122 
ENP,ioos.station.NOAA.NDBC:LMRF1:1,2016-03-11T20:00:00Z,25.5560,-81.1690,1.5,13.15,1111122 
ENP,ioos.station.NOAA.NDBC:LMRF1:1,2016-03-11T21:00:00Z,25.5560,-81.1690,1.5,16.06,1111122 
ENP,ioos.station.NOAA.NDBC:LMRF1:1,2016-03-11T22:00:00Z,25.5560,-81.1690,1.5,19.52,1111122 
ENP,ioos.station.NOAA.NDBC:LMRF1:1,2016-03-11T23:00:00Z,25.5560,-81.1690,1.5,21.1,1111122 
ENP,ioos.station.NOAA.NDBC:LMRF1:1,2016-03-12T00:00:00Z,25.5560,-81.1690,1.5,20.27,1111122 
ENP,ioos.station.NOAA.NDBC:LMRF1:1,2016-03-12T01:00:00Z,25.5560,-81.1690,1.5,18.76,1111122 
ENP,ioos.station.NOAA.NDBC:LMRF1:1,2016-03-12T02:00:00Z,25.5560,-81.1690,1.5,16.33,1111122 
ENP,ioos.station.NOAA.NDBC:LMRF1:1,2016-03-12T05:00:00Z,25.5560,-81.1690,1.5,12.3,1111122 
ENP,ioos.station.NOAA.NDBC:LMRF1:1,2016-03-12T08:00:00Z,25.5560,-81.1690,1.5,11.13,1111122 
ENP,ioos.station.NOAA.NDBC:LMRF1:1,2016-03-12T09:00:00Z,25.5560,-81.1690,1.5,12.43,1111122 
ENP,ioos.station.NOAA.NDBC:LMRF1:1,2016-03-12T10:00:00Z,25.5560,-81.1690,1.5,15.6,1111122 
ENP,ioos.station.NOAA.NDBC:LMRF1:1,2016-03-12T11:00:00Z,25.5560,-81.1690,1.5,18.7,1111122 
ENP,ioos.station.NOAA.NDBC:LMRF1:1,2016-03-12T12:00:00Z,25.5560,-81.1690,1.5,19.99,1111122 
ENP,ioos.station.NOAA.NDBC:LMRF1:1,2016-03-12T13:00:00Z,25.5560,-81.1690,1.5,18.29,1111122 
ENP,ioos.station.NOAA.NDBC:LMRF1:1,2016-03-12T14:00:00Z,25.5560,-81.1690,1.5,15.6,1111122 
ENP,ioos.station.NOAA.NDBC:LMRF1:1,2016-03-12T15:00:00Z,25.5560,-81.1690,1.5,14.6,1111122 
ENP,ioos.station.NOAA.NDBC:LMRF1:1,2016-03-12T16:00:00Z,25.5560,-81.1690,1.5,13.8,1111122 
ENP,ioos.station.NOAA.NDBC:LMRF1:1,2016-03-12T17:00:00Z,25.5560,-81.1690,1.5,12.49,1111122 
ENP,ioos.station.NOAA.NDBC:LMRF1:1,2016-03-12T18:00:00Z,25.5560,-81.1690,1.5,11.91,1111122 
ENP,ioos.station.NOAA.NDBC:LMRF1:1,2016-03-12T19:00:00Z,25.5560,-81.1690,1.5,11.78,1111122 
ENP,ioos.station.NOAA.NDBC:LMRF1:1,2016-03-12T20:00:00Z,25.5560,-81.1690,1.5,12.23,1111122 
ENP,ioos.station.NOAA.NDBC:LMRF1:1,2016-03-12T21:00:00Z,25.5560,-81.1690,1.5,14.46,1111122 
ENP,ioos.station.NOAA.NDBC:LMRF1:1,2016-03-12T22:00:00Z,25.5560,-81.1690,1.5,19.24,1111122 
ENP,ioos.station.NOAA.NDBC:LMRF1:1,2016-03-12T23:00:00Z,25.5560,-81.1690,1.5,21.03,1111122 
ENP,ioos.station.NOAA.NDBC:LMRF1:1,2016-03-13T00:00:00Z,25.5560,-81.1690,1.5,21.65,1111122 
ENP,ioos.station.NOAA.NDBC:LMRF1:1,2016-03-13T01:00:00Z,25.5560,-81.1690,1.5,20.68,1111122 
ENP,ioos.station.NOAA.NDBC:LMRF1:1,2016-03-13T02:00:00Z,25.5560,-81.1690,1.5,17.95,1111122 
ENP,ioos.station.NOAA.NDBC:LMRF1:1,2016-03-13T04:00:00Z,25.5560,-81.1690,1.5,13.8,1111122 
ENP,ioos.station.NOAA.NDBC:LMRF1:1,2016-03-13T08:00:00Z,25.5560,-81.1690,1.5,11.19,1111122 
ENP,ioos.station.NOAA.NDBC:LMRF1:1,2016-03-13T09:00:00Z,25.5560,-81.1690,1.5,11.39,1111122 
ENP,ioos.station.NOAA.NDBC:LMRF1:1,2016-03-13T11:00:00Z,25.5560,-81.1690,1.5,14.66,1111122 
ENP,ioos.station.NOAA.NDBC:LMRF1:1,2016-03-13T12:00:00Z,25.5560,-81.1690,1.5,17.21,1111122 
ENP,ioos.station.NOAA.NDBC:LMRF1:1,2016-03-13T13:00:00Z,25.5560,-81.1690,1.5,18.09,1111122 
ENP,ioos.station.NOAA.NDBC:LMRF1:1,2016-03-13T14:00:00Z,25.5560,-81.1690,1.5,16.13,1111122 
ENP,ioos.station.NOAA.NDBC:LMRF1:1,2016-03-13T15:00:00Z,25.5560,-81.1690,1.5,14.33,1111122 
ENP,ioos.station.NOAA.NDBC:LMRF1:1,2016-03-13T16:00:00Z,25.5560,-81.1690,1.5,13.61,1111122 
ENP,ioos.station.NOAA.NDBC:LMRF1:1,2016-03-13T17:00:00Z,25.5560,-81.1690,1.5,12.82,1111122 
ENP,ioos.station.NOAA.NDBC:LMRF1:1,2016-03-13T18:00:00Z,25.5560,-81.1690,1.5,12.23,1111122 
ENP,ioos.station.NOAA.NDBC:LMRF1:1,2016-03-13T19:00:00Z,25.5560,-81.1690,1.5,11.97,1111122 
ENP,ioos.station.NOAA.NDBC:LMRF1:1,2016-03-13T20:00:00Z,25.5560,-81.1690,1.5,12.1,1111122 
ENP,ioos.station.NOAA.NDBC:LMRF1:1,2016-03-13T21:00:00Z,25.5560,-81.1690,1.5,13.21,1111122 
ENP,ioos.station.NOAA.NDBC:LMRF1:1,2016-03-13T22:00:00Z,25.5560,-81.1690,1.5,17.27,1111122 
ENP,ioos.station.NOAA.NDBC:LMRF1:1,2016-03-13T23:00:00Z,25.5560,-81.1690,1.5,20.34,1111122 
ENP,ioos.station.NOAA.NDBC:LMRF1:1,2016-03-14T00:00:00Z,25.5560,-81.1690,1.5,21.79,1111122 
ENP,ioos.station.NOAA.NDBC:LMRF1:1,2016-03-14T01:00:00Z,25.5560,-81.1690,1.5,22.2,1111122 
ENP,ioos.station.NOAA.NDBC:LMRF1:1,2016-03-14T03:00:00Z,25.5560,-81.1690,1.5,18.83,1111122 
ENP,ioos.station.NOAA.NDBC:LMRF1:1,2016-03-14T04:00:00Z,25.5560,-81.1690,1.5,17.68,1111122 
ENP,ioos.station.NOAA.NDBC:LMRF1:1,2016-03-14T07:00:00Z,25.5560,-81.1690,1.5,13.21,1111122 
ENP,ioos.station.NOAA.NDBC:LMRF1:1,2016-03-14T08:00:00Z,25.5560,-81.1690,1.5,12.56,1111122 
ENP,ioos.station.NOAA.NDBC:LMRF1:1,2016-03-14T09:00:00Z,25.5560,-81.1690,1.5,12.3,1111122 
ENP,ioos.station.NOAA.NDBC:LMRF1:1,2016-03-14T10:00:00Z,25.5560,-81.1690,1.5,12.56,1111122 
ENP,ioos.station.NOAA.NDBC:LMRF1:1,2016-03-14T11:00:00Z,25.5560,-81.1690,1.5,13.74,1111122 
ENP,ioos.station.NOAA.NDBC:LMRF1:1,2016-03-14T12:00:00Z,25.5560,-81.1690,1.5,16.0,1111122 
ENP,ioos.station.NOAA.NDBC:LMRF1:1,2016-03-14T13:00:00Z,25.5560,-81.1690,1.5,18.02,1111122 
ENP,ioos.station.NOAA.NDBC:LMRF1:1,2016-03-14T14:00:00Z,25.5560,-81.1690,1.5,18.7,1111122 
ENP,ioos.station.NOAA.NDBC:LMRF1:1,2016-03-14T18:00:00Z,25.5560,-81.1690,1.5,13.47,1111122 
ENP,ioos.station.NOAA.NDBC:LMRF1:1,2016-03-14T19:00:00Z,25.5560,-81.1690,1.5,12.95,1111122 